�������l�o���
Date,Time,MP-1(��Sv/h),MP-2(��Sv/h),MP-3(��Sv/h),MP-4(��Sv/h),MP-5(��Sv/h),MP-6(��Sv/h),MP-7(��Sv/h),MP-8(��Sv/h),����,����(m/s),���J
2023/08/06,00:00,0.553,0.835,0.509,1.022,0.753,0.328,0.583,0.538,��,7.7,��
2023/08/06,00:10,0.553,0.836,0.508,1.020,0.749,0.330,0.582,0.540,��,7.6,��
2023/08/06,00:20,0.553,0.837,0.508,1.022,0.752,0.329,0.582,0.540,��쐼,6.9,��
2023/08/06,00:30,0.553,0.835,0.509,1.020,0.750,0.330,0.583,0.539,��쐼,6.6,��
2023/08/06,00:40,0.553,0.834,0.509,1.020,0.751,0.329,0.582,0.540,��쐼,6.1,��
2023/08/06,00:50,0.551,0.834,0.506,1.020,0.750,0.330,0.582,0.541,��쐼,5.1,��
2023/08/06,01:00,0.554,0.835,0.508,1.022,0.750,0.330,0.582,0.541,��쐼,4.6,��
2023/08/06,01:10,0.552,0.835,0.508,1.021,0.750,0.330,0.582,0.539,��,3.9,��
2023/08/06,01:20,0.554,0.835,0.508,1.019,0.749,0.329,0.584,0.538,��,4.7,��
2023/08/06,01:30,0.552,0.835,0.509,1.021,0.751,0.328,0.583,0.540,��,5.4,��
2023/08/06,01:40,0.553,0.837,0.507,1.018,0.752,0.330,0.582,0.540,��,5.3,��
2023/08/06,01:50,0.555,0.834,0.508,1.024,0.751,0.331,0.582,0.541,��,5.5,��
2023/08/06,02:00,0.552,0.837,0.508,1.023,0.751,0.330,0.581,0.541,��,6.3,��
2023/08/06,02:10,0.551,0.835,0.508,1.021,0.750,0.329,0.582,0.541,��,6.3,��
2023/08/06,02:20,0.553,0.835,0.508,1.020,0.750,0.329,0.583,0.541,��,6.6,��
2023/08/06,02:30,0.553,0.836,0.509,1.021,0.750,0.329,0.582,0.540,��,6.2,��
2023/08/06,02:40,0.553,0.835,0.506,1.020,0.751,0.330,0.583,0.539,��,6.6,��
2023/08/06,02:50,0.552,0.835,0.507,1.021,0.750,0.329,0.582,0.539,��,6.1,��
2023/08/06,03:00,0.552,0.836,0.510,1.020,0.752,0.329,0.582,0.539,��,6.0,��
2023/08/06,03:10,0.552,0.834,0.509,1.021,0.748,0.331,0.582,0.542,��,6.2,��
2023/08/06,03:20,0.554,0.837,0.510,1.023,0.750,0.328,0.582,0.540,��쓌,5.2,��
2023/08/06,03:30,0.553,0.834,0.509,1.020,0.752,0.329,0.583,0.540,��,4.6,��
2023/08/06,03:40,0.551,0.835,0.509,1.020,0.750,0.330,0.582,0.538,��,5.1,��
2023/08/06,03:50,0.551,0.836,0.509,1.022,0.750,0.330,0.582,0.539,��,3.9,��
2023/08/06,04:00,0.552,0.836,0.508,1.021,0.750,0.328,0.581,0.541,��,4.7,��
2023/08/06,04:10,0.551,0.837,0.509,1.020,0.749,0.328,0.583,0.539,��,4.9,��
2023/08/06,04:20,0.551,0.835,0.508,1.024,0.752,0.329,0.583,0.540,��,4.1,��
2023/08/06,04:30,0.552,0.835,0.507,1.022,0.751,0.329,0.582,0.539,��쓌,3.9,��
2023/08/06,04:40,0.552,0.834,0.509,1.020,0.751,0.329,0.582,0.540,��,3.1,��
2023/08/06,04:50,0.552,0.836,0.508,1.021,0.751,0.329,0.581,0.539,��,4.2,��
2023/08/06,05:00,0.550,0.834,0.506,1.020,0.749,0.328,0.583,0.540,��,5.1,��
2023/08/06,05:10,0.552,0.836,0.507,1.020,0.750,0.328,0.582,0.541,��,5.3,��
2023/08/06,05:20,0.552,0.835,0.507,1.020,0.750,0.329,0.581,0.540,��,4.8,��
2023/08/06,05:30,0.552,0.835,0.508,1.023,0.753,0.328,0.582,0.539,��,4.1,��
2023/08/06,05:40,0.551,0.838,0.507,1.021,0.750,0.329,0.584,0.538,��,2.2,��
2023/08/06,05:50,0.551,0.837,0.506,1.019,0.752,0.329,0.582,0.539,��,2.6,��
2023/08/06,06:00,0.552,0.835,0.507,1.022,0.751,0.328,0.583,0.540,��,3.8,��
2023/08/06,06:10,0.551,0.836,0.507,1.021,0.749,0.329,0.581,0.540,��,4.7,��
2023/08/06,06:20,0.552,0.834,0.507,1.020,0.750,0.328,0.582,0.539,��,5.0,��
2023/08/06,06:30,0.552,0.834,0.507,1.021,0.750,0.329,0.581,0.539,��,5.5,��
2023/08/06,06:40,0.552,0.832,0.508,1.021,0.750,0.330,0.583,0.540,��,6.9,��
2023/08/06,06:50,0.550,0.832,0.508,1.021,0.751,0.328,0.583,0.541,��,6.0,��
2023/08/06,07:00,0.552,0.834,0.508,1.022,0.747,0.329,0.582,0.540,��,6.1,��
2023/08/06,07:10,0.552,0.832,0.506,1.022,0.752,0.328,0.582,0.539,��쓌,7.5,��
2023/08/06,07:20,0.553,0.833,0.507,1.023,0.749,0.328,0.582,0.539,��,7.4,��
2023/08/06,07:30,0.553,0.835,0.508,1.023,0.750,0.330,0.582,0.540,��,6.8,��
2023/08/06,07:40,0.552,0.833,0.507,1.022,0.750,0.327,0.584,0.539,��,6.8,��
2023/08/06,07:50,0.552,0.835,0.506,1.018,0.750,0.329,0.584,0.539,��,7.6,��
2023/08/06,08:00,0.551,0.836,0.507,1.023,0.749,0.329,0.582,0.540,��,9.2,��
2023/08/06,08:10,0.550,0.835,0.506,1.021,0.749,0.328,0.582,0.539,��,10.0,��
2023/08/06,08:20,0.552,0.834,0.507,1.020,0.749,0.329,0.585,0.539,��,9.7,��
2023/08/06,08:30,0.552,0.833,0.507,1.021,0.749,0.329,0.583,0.540,��쓌,8.6,��
2023/08/06,08:40,0.551,0.833,0.507,1.023,0.750,0.329,0.584,0.540,��,8.6,��
2023/08/06,08:50,0.552,0.833,0.508,1.022,0.750,0.329,0.585,0.539,��쓌,8.5,��
2023/08/06,09:00,0.552,0.835,0.509,1.022,0.751,0.330,0.585,0.537,��쓌,10.5,��
2023/08/06,09:10,0.551,0.835,0.506,1.022,0.751,0.328,0.584,0.538,��쓌,10.5,��
2023/08/06,09:20,0.554,0.837,0.507,1.023,0.749,0.330,0.585,0.539,��,9.3,��
2023/08/06,09:30,0.552,0.835,0.506,1.022,0.751,0.328,0.585,0.538,��쓌,10.5,��
2023/08/06,09:40,0.552,0.836,0.508,1.023,0.751,0.329,0.583,0.539,��쓌,9.4,��
2023/08/06,09:50,0.552,0.837,0.508,1.024,0.751,0.329,0.584,0.539,��쓌,11.3,��
2023/08/06,10:00,0.553,0.836,0.508,1.021,0.750,0.328,0.584,0.540,��쓌,9.2,��
2023/08/06,10:10,0.553,0.835,0.508,1.023,0.752,0.329,0.583,0.538,��쓌,11.0,��
2023/08/06,10:20,0.552,0.837,0.507,1.021,0.749,0.329,0.583,0.539,��쓌,11.6,��
2023/08/06,10:30,0.553,0.837,0.507,1.023,0.751,0.329,0.581,0.540,��쓌,10.2,��
2023/08/06,10:40,0.553,0.836,0.508,1.025,0.752,0.329,0.583,0.541,��,11.6,��
2023/08/06,10:50,0.553,0.836,0.507,1.025,0.751,0.329,0.582,0.538,��쓌,12.2,��
2023/08/06,11:00,0.554,0.835,0.509,1.026,0.754,0.329,0.582,0.541,��,13.1,��
2023/08/06,11:10,0.554,0.835,0.509,1.024,0.755,0.329,0.582,0.540,��,12.0,��
2023/08/06,11:20,0.552,0.836,0.509,1.024,0.754,0.330,0.583,0.541,��쓌,12.7,��
2023/08/06,11:30,0.553,0.837,0.510,1.023,0.756,0.328,0.583,0.540,��쓌,13.6,��
2023/08/06,11:40,0.554,0.837,0.509,1.021,0.754,0.328,0.582,0.539,��쓌,13.8,��
2023/08/06,11:50,0.552,0.839,0.511,1.022,0.756,0.327,0.582,0.540,��쓌,13.5,��
2023/08/06,12:00,0.554,0.837,0.509,1.022,0.753,0.328,0.585,0.539,��쓌,14.7,��
2023/08/06,12:10,0.553,0.838,0.511,1.021,0.755,0.330,0.583,0.540,��쓌,13.6,��
2023/08/06,12:20,0.556,0.837,0.510,1.025,0.756,0.328,0.583,0.541,��쓌,13.9,��
2023/08/06,12:30,0.553,0.840,0.510,1.022,0.755,0.329,0.584,0.540,��쓌,13.9,��
2023/08/06,12:40,0.555,0.838,0.509,1.023,0.755,0.329,0.586,0.542,��쓌,13.0,��
2023/08/06,12:50,0.553,0.837,0.509,1.023,0.754,0.330,0.584,0.543,��,12.2,��
2023/08/06,13:00,0.553,0.838,0.510,1.023,0.753,0.328,0.584,0.541,��쓌,13.8,��
2023/08/06,13:10,0.553,0.838,0.509,1.024,0.756,0.330,0.585,0.542,��쓌,12.5,��
2023/08/06,13:20,0.555,0.837,0.510,1.022,0.755,0.329,0.585,0.543,��쓌,13.6,��
2023/08/06,13:30,0.554,0.839,0.510,1.027,0.756,0.329,0.586,0.542,��,14.9,��
2023/08/06,13:40,0.554,0.838,0.510,1.027,0.754,0.328,0.585,0.538,��쓌,13.8,��
2023/08/06,13:50,0.553,0.836,0.510,1.025,0.756,0.330,0.585,0.534,��쓌,14.2,��
2023/08/06,14:00,0.553,0.837,0.511,1.027,0.755,0.329,0.584,0.537,��쓌,14.4,��
2023/08/06,14:10,0.555,0.838,0.512,1.027,0.755,0.330,0.582,0.533,��쓌,13.6,��
2023/08/06,14:20,0.554,0.838,0.511,1.025,0.754,0.330,0.583,0.536,��,13.5,��
2023/08/06,14:30,0.554,0.839,0.510,1.022,0.756,0.329,0.582,0.534,��쓌,13.9,��
2023/08/06,14:40,0.554,0.838,0.510,1.025,0.754,0.329,0.580,0.537,��,12.7,��
2023/08/06,14:50,0.553,0.838,0.508,1.024,0.755,0.328,0.583,0.535,��쓌,12.5,��
2023/08/06,15:00,0.555,0.838,0.508,1.025,0.755,0.328,0.581,0.536,��,12.2,��
2023/08/06,15:10,0.554,0.840,0.510,1.022,0.756,0.327,0.582,0.536,��쓌,11.6,��
2023/08/06,15:20,0.555,0.838,0.509,1.026,0.753,0.329,0.585,0.536,��,10.5,��
2023/08/06,15:30,0.553,0.837,0.510,1.026,0.753,0.330,0.582,0.536,��,9.9,�L
2023/08/06,15:40,0.553,0.838,0.508,1.024,0.753,0.328,0.584,0.535,��쓌,13.0,��
2023/08/06,15:50,0.552,0.839,0.509,1.029,0.755,0.328,0.585,0.535,��,11.9,��
2023/08/06,16:00,0.553,0.837,0.510,1.028,0.755,0.328,0.583,0.536,��,11.6,��
2023/08/06,16:10,0.553,0.837,0.510,1.028,0.755,0.329,0.582,0.536,��,11.1,��
2023/08/06,16:20,0.554,0.837,0.511,1.030,0.754,0.328,0.583,0.535,��,10.3,��
2023/08/06,16:30,0.553,0.837,0.511,1.028,0.755,0.328,0.582,0.537,��,12.4,��
2023/08/06,16:40,0.553,0.838,0.509,1.029,0.754,0.329,0.583,0.535,��쓌,14.1,��
2023/08/06,16:50,0.553,0.836,0.509,1.028,0.754,0.328,0.582,0.536,��쓌,11.6,��
2023/08/06,17:00,0.555,0.837,0.510,1.027,0.755,0.329,0.582,0.535,��쓌,9.8,��
2023/08/06,17:10,0.552,0.837,0.509,1.026,0.754,0.328,0.582,0.535,��,10.5,��
2023/08/06,17:20,0.553,0.838,0.507,1.028,0.753,0.327,0.582,0.536,��,10.5,��
2023/08/06,17:30,0.554,0.838,0.507,1.025,0.754,0.328,0.583,0.536,��쓌,9.9,��
2023/08/06,17:40,0.553,0.838,0.508,1.026,0.755,0.329,0.581,0.536,��,10.5,��
2023/08/06,17:50,0.553,0.836,0.508,1.027,0.752,0.330,0.583,0.536,��,11.3,��
2023/08/06,18:00,0.553,0.836,0.507,1.027,0.753,0.330,0.581,0.536,��,11.1,��
2023/08/06,18:10,0.552,0.838,0.509,1.023,0.753,0.326,0.580,0.537,��,9.4,��
2023/08/06,18:20,0.555,0.836,0.508,1.027,0.754,0.329,0.582,0.536,��,10.5,��
2023/08/06,18:30,0.554,0.839,0.507,1.027,0.753,0.328,0.582,0.536,��,9.0,��
2023/08/06,18:40,0.552,0.836,0.506,1.027,0.752,0.329,0.582,0.537,��,8.1,��
2023/08/06,18:50,0.552,0.837,0.508,1.025,0.752,0.328,0.582,0.536,��,7.1,��
2023/08/06,19:00,0.554,0.836,0.507,1.026,0.755,0.329,0.582,0.538,��,7.6,��
2023/08/06,19:10,0.553,0.838,0.507,1.026,0.754,0.329,0.584,0.538,��,7.1,��
2023/08/06,19:20,0.552,0.839,0.509,1.028,0.754,0.328,0.583,0.537,��,7.5,��
2023/08/06,19:30,0.554,0.837,0.509,1.026,0.753,0.328,0.581,0.538,��,7.4,��
2023/08/06,19:40,0.554,0.838,0.507,1.025,0.753,0.328,0.583,0.536,��,9.4,��
2023/08/06,19:50,0.553,0.838,0.508,1.028,0.753,0.330,0.582,0.537,��,8.4,��
2023/08/06,20:00,0.554,0.837,0.509,1.026,0.754,0.329,0.581,0.537,��,9.1,��
2023/08/06,20:10,0.554,0.839,0.509,1.026,0.754,0.330,0.582,0.537,��,8.8,��
2023/08/06,20:20,0.555,0.840,0.511,1.026,0.754,0.329,0.583,0.536,��,8.0,��
2023/08/06,20:30,0.553,0.838,0.508,1.027,0.755,0.329,0.581,0.537,��,9.2,��
2023/08/06,20:40,0.554,0.838,0.508,1.025,0.753,0.330,0.581,0.538,��,8.8,��
2023/08/06,20:50,0.555,0.836,0.509,1.025,0.754,0.330,0.582,0.538,��,8.2,��
2023/08/06,21:00,0.554,0.838,0.508,1.027,0.753,0.330,0.581,0.537,��,8.3,��
2023/08/06,21:10,0.554,0.836,0.507,1.028,0.755,0.329,0.582,0.538,��,9.9,��
2023/08/06,21:20,0.554,0.837,0.509,1.025,0.755,0.329,0.580,0.539,��,7.5,��
2023/08/06,21:30,0.555,0.838,0.509,1.026,0.751,0.328,0.580,0.537,��쓌,9.0,��
2023/08/06,21:40,0.553,0.838,0.509,1.026,0.754,0.329,0.582,0.537,��쓌,9.1,��
2023/08/06,21:50,0.553,0.839,0.510,1.027,0.753,0.330,0.582,0.537,��,10.2,��
2023/08/06,22:00,0.554,0.839,0.509,1.027,0.754,0.328,0.583,0.537,��,10.0,��
2023/08/06,22:10,0.554,0.837,0.508,1.027,0.754,0.329,0.582,0.538,��,8.8,��
2023/08/06,22:20,0.552,0.837,0.508,1.027,0.752,0.329,0.583,0.538,��쓌,8.6,��
2023/08/06,22:30,0.554,0.835,0.509,1.026,0.754,0.329,0.582,0.537,��,9.4,��
2023/08/06,22:40,0.553,0.838,0.508,1.026,0.752,0.329,0.583,0.539,��쓌,9.2,��
2023/08/06,22:50,0.554,0.838,0.508,1.028,0.753,0.328,0.582,0.537,��,6.6,��
2023/08/06,23:00,0.553,0.837,0.507,1.026,0.753,0.328,0.582,0.536,��,7.7,��
2023/08/06,23:10,0.552,0.837,0.508,1.027,0.754,0.327,0.583,0.537,��쓌,6.8,��
2023/08/06,23:20,0.553,0.837,0.508,1.027,0.753,0.329,0.582,0.538,��쓌,9.1,��
2023/08/06,23:30,0.553,0.837,0.508,1.027,0.753,0.329,0.582,0.536,��쓌,10.0,��
2023/08/06,23:40,0.553,0.836,0.508,1.025,0.753,0.329,0.582,0.537,��,9.4,��
2023/08/06,23:50,0.553,0.838,0.508,1.025,0.752,0.328,0.582,0.538,��,10.0,��
